FW8395 Weather Reports


time (UTC)temp
F
wind
direction
speed
knots
gust
knots
rain 1hr
in
rain 24hr
in
rain mn
in
humidity
%
barometer
mb
20260510072640 64 355 0.9 2.6 0.00 0.02 0.02 82 1014.6
20260510072136 64 278 0.0 2.6 0.00 0.02 0.02 81 1014.3
20260510071632 64 112 2.6 3.5 0.00 0.02 0.02 80 1014.2
20260510071130 64 300 2.6 3.5 0.02 0.02 0.02 82 1014.1
20260510070627 64 255 0.9 1.7 0.05 0.02 0.02 80 1013.9
20260510070125 64 261 0.0 0.0 0.05 0.02 0.02 78 1013.7
20260510065620 65 117 0.0 0.9 0.05 0.01 0.01 76 1013.7
20260510065116 66 71 0.0 2.6 0.05 0.01 0.01 70 1014.1
20260510064613 67 140 0.0 1.7 0.00 0.00 0.00 70 1014.3
20260510064110 67 39 2.6 2.6 0.00 0.00 0.00 66 1014.4
20260510063606 67 32 1.7 2.6 0.00 0.00 0.00 64 1014.3
20260510063104 67 90 1.7 2.6 0.00 0.00 0.00 65 1014.0
20260510062559 67 35 0.9 3.5 0.00 0.00 0.00 65 1014.1
20260510062055 67 108 1.7 2.6 0.00 0.00 0.00 68 1013.7
20260510061551 67 198 1.7 2.6 0.00 0.00 0.00 70 1013.9
20260510061048 67 82 0.0 2.6 0.00 0.00 0.00 70 1013.4
20260510060544 67 81 1.7 2.6 0.00 0.00 0.00 66 1013.4
20260510060041 68 51 1.7 3.5 0.00 0.00 0.00 65 1013.5
20260510055537 68 70 1.7 2.6 0.00 0.00 0.00 65 1013.4
20260510055036 67 90 1.7 1.7 0.00 0.00 0.00 65 1013.6
20260510054531 67 172 0.0 0.0 0.00 0.00 0.00 65 1013.8
20260510054026 67 0 0.0 0.0 0.00 0.00 0.00 68 1013.7
20260510053521 67 0 0.0 0.9 0.00 0.00 0.00 68 1013.7
20260510053018 66 328 1.7 2.6 0.00 0.00 0.00 69 1013.4
20260510052514 66 162 0.0 0.0 0.00 0.00 0.00 69 1013.2
20260510052010 66 162 0.0 0.0 0.00 0.00 0.00 67 1013.3
20260510051506 66 162 0.0 0.0 0.00 0.00 0.00 67 1013.1
20260510051003 67 162 0.0 0.9 0.00 0.00 0.00 67 1013.2
20260510050500 67 340 0.0 0.0 0.00 0.00 0.00 67 1013.0
20260510045957 67 0 1.7 1.7 0.00 0.00 0.00 68 1013.3
20260510045454 67 246 0.0 0.0 0.00 0.00 0.00 68 1013.1
20260510044950 67 246 0.0 0.9 0.00 0.00 0.00 68 1013.2
20260510044447 66 188 0.0 0.0 0.00 0.00 0.00 70 1012.9
20260510043944 67 188 0.0 0.0 0.00 0.00 0.00 67 1012.7
20260510043440 67 103 0.0 0.0 0.00 0.00 0.00 64 1012.9
20260510042938 68 103 0.0 0.0 0.00 0.00 0.00 64 1012.5
20260510042434 68 103 0.0 0.0 0.00 0.00 0.00 64 1012.6
20260510041930 68 0 0.9 0.9 0.00 0.00 0.00 60 1012.6
20260510041427 68 0 0.0 1.7 0.00 0.00 0.00 61 1012.7
20260510040925 68 6 0.9 0.9 0.00 0.00 0.00 63 1012.4
20260510040421 68 8 0.0 1.7 0.00 0.00 0.00 63 1012.6
20260510035917 68 23 0.0 1.7 0.00 0.00 0.00 63 1012.7
20260510035414 68 83 0.0 0.9 0.00 0.00 0.00 64 1012.5
20260510034913 68 348 0.0 0.9 0.00 0.00 0.00 65 1012.5
20260510034413 68 0 0.0 0.0 0.00 0.00 0.00 67 1012.4
20260510033908 68 352 0.0 1.7 0.00 0.00 0.00 69 1012.4
20260510033405 68 325 0.0 1.7 0.00 0.00 0.00 69 1012.1
20260510032901 68 0 0.0 0.9 0.00 0.00 0.00 68 1012.0
20260510032358 68 346 0.9 0.9 0.00 0.00 0.00 71 1012.0
20260510031854 69 8 0.0 0.0 0.00 0.00 0.00 69 1011.9
20260510031349 69 8 0.0 0.9 0.00 0.00 0.00 68 1011.8
20260510030849 69 0 0.0 0.9 0.00 0.00 0.00 68 1011.5
20260510030346 70 90 0.9 2.6 0.00 0.00 0.00 68 1011.5
20260510025843 70 36 0.0 1.7 0.00 0.00 0.00 66 1011.4
20260510025341 70 60 0.0 2.6 0.00 0.00 0.00 66 1011.4
20260510024837 71 105 0.0 2.6 0.00 0.00 0.00 64 1011.3
20260510024334 71 111 0.9 1.7 0.00 0.00 0.00 63 1011.2
20260510023830 71 79 0.0 1.7 0.00 0.00 0.00 59 1011.1
20260510023327 71 352 0.0 0.9 0.00 0.00 0.00 57 1011.1
20260510022824 71 102 0.0 0.0 0.00 0.00 0.00 57 1011.0
20260510022323 71 102 0.0 0.0 0.00 0.00 0.00 56 1011.1
20260510021822 72 102 0.0 0.0 0.00 0.00 0.00 56 1011.0
20260510021321 72 102 0.0 0.0 0.00 0.00 0.00 55 1010.8
20260510020817 72 102 0.0 0.0 0.00 0.00 0.00 53 1010.8
20260510020312 73 331 0.0 0.0 0.00 0.00 0.00 52 1010.5
20260510015808 73 331 0.0 0.0 0.00 0.00 0.00 51 1010.6
20260510015306 73 0 0.0 0.0 0.00 0.00 0.00 49 1010.5
20260510014759 74 353 0.0 0.0 0.00 0.00 0.00 49 1010.5
20260510014256 73 353 0.0 0.0 0.00 0.00 0.00 48 1010.4
20260510013752 74 353 0.0 0.0 0.00 0.00 0.00 48 1010.5
20260510013248 75 8 0.0 0.9 0.00 0.00 0.00 46 1010.3
20260510012743 75 114 0.0 0.9 0.00 0.00 0.00 42 1010.4
20260510012238 75 188 0.0 0.0 0.00 0.00 0.00 42 1010.0
20260510011737 75 188 0.0 0.9 0.00 0.00 0.00 42 1010.2
20260510011234 76 180 0.0 0.9 0.00 0.00 0.00 41 1010.1
20260510010731 77 166 0.0 0.0 0.00 0.00 0.00 40 1009.9
20260510010227 77 166 0.0 0.9 0.00 0.00 0.00 39 1009.9
20260510005724 77 180 0.0 1.7 0.00 0.00 0.00 39 1010.0
20260510005221 78 187 0.9 1.7 0.00 0.00 0.00 39 1009.9
20260510004718 79 123 0.0 1.7 0.00 0.00 0.00 38 1010.2
20260510004216 80 98 0.0 1.7 0.00 0.00 0.00 36 1009.8
20260510003713 81 111 0.0 1.7 0.00 0.00 0.00 35 1009.6
20260510003209 82 166 0.0 1.7 0.00 0.00 0.00 37 1009.6
20260510002708 83 165 0.0 1.7 0.00 0.00 0.00 35 1009.7
20260510002206 83 195 0.0 1.7 0.00 0.00 0.00 35 1010.0
20260510001702 83 157 0.0 1.7 0.00 0.00 0.00 34 1009.9
20260510001201 83 180 0.9 2.6 0.00 0.00 0.00 35 1009.8
20260510000656 82 135 0.0 2.6 0.00 0.00 0.00 35 1009.8
20260510000154 83 127 1.7 2.6 0.00 0.00 0.00 33 1009.9
20260509235650 83 90 1.7 2.6 0.00 0.00 0.00 31 1010.0
20260509235147 84 109 1.7 4.3 0.00 0.00 0.00 30 1010.0
20260509234643 86 229 0.0 1.7 0.00 0.00 0.00 28 1009.8
20260509234141 84 139 1.7 1.7 0.00 0.00 0.00 29 1009.9
20260509233638 84 175 1.7 1.7 0.00 0.00 0.00 29 1009.8
20260509233136 84 234 0.9 3.5 0.00 0.00 0.00 26 1010.0
20260509232631 84 148 0.0 2.6 0.00 0.00 0.00 28 1010.1
20260509232128 85 95 1.7 2.6 0.00 0.00 0.00 27 1010.0
20260509231625 84 113 0.0 3.5 0.00 0.00 0.00 26 1010.0
20260509231123 84 114 2.6 3.5 0.00 0.00 0.00 26 1010.3
20260509230619 84 112 4.3 4.3 0.00 0.00 0.00 25 1010.2
20260509230117 85 90 0.9 4.3 0.00 0.00 0.00 25 1010.2
20260509225612 85 173 0.0 1.7 0.00 0.00 0.00 28 1010.0
20260509225108 85 67 1.7 4.3 0.00 0.00 0.00 23 1010.0
20260509224603 85 87 3.5 4.3 0.00 0.00 0.00 21 1010.3
20260509224101 86 90 1.7 2.6 0.00 0.00 0.00 23 1010.2
20260509223557 86 166 0.9 3.5 0.00 0.00 0.00 23 1010.3
20260509223055 86 237 1.7 2.6 0.00 0.00 0.00 22 1010.0
20260509222551 87 180 0.0 1.7 0.00 0.00 0.00 21 1010.3
20260509222047 86 258 0.0 3.5 0.00 0.00 0.00 21 1010.4
20260509221543 86 157 0.0 1.7 0.00 0.00 0.00 22 1010.2
20260509221039 86 102 2.6 3.5 0.00 0.00 0.00 23 1010.1
20260509220535 84 36 1.7 4.3 0.00 0.00 0.00 23 1010.2
20260509220032 85 254 1.7 4.3 0.00 0.00 0.00 30 1010.1
20260509215527 86 99 0.0 3.5 0.00 0.00 0.00 25 1010.2
20260509215024 86 174 0.0 1.7 0.00 0.00 0.00 27 1010.0
20260509214521 85 147 1.7 5.2 0.00 0.00 0.00 28 1010.1
20260509214018 84 22 2.6 2.6 0.00 0.00 0.00 22 1010.3
20260509213514 85 66 4.3 4.3 0.00 0.00 0.00 23 1010.4
20260509213011 85 221 0.0 3.5 0.00 0.00 0.00 25 1010.3
20260509212509 85 164 1.7 2.6 0.00 0.00 0.00 23 1010.2
20260509212005 84 150 0.0 4.3 0.00 0.00 0.00 20 1010.4
20260509211501 84 63 2.6 5.2 0.00 0.00 0.00 23 1010.3
20260509210957 85 195 0.9 3.5 0.00 0.00 0.00 23 1010.4
20260509210454 84 101 2.6 6.1 0.00 0.00 0.00 25 1010.6
20260509205950 84 174 2.6 3.5 0.00 0.00 0.00 23 1010.5
20260509205445 85 144 0.0 4.3 0.00 0.00 0.00 26 1010.6
20260509204941 86 283 0.9 1.7 0.00 0.00 0.00 27 1010.7
20260509204437 84 164 2.6 6.1 0.00 0.00 0.00 29 1010.9
20260509203934 85 111 6.1 6.1 0.00 0.00 0.00 23 1010.9
20260509203430 85 41 4.3 4.3 0.00 0.00 0.00 22 1010.9
20260509202927 84 110 3.5 4.3 0.00 0.00 0.00 22 1011.0
20260509202423 85 93 2.6 3.5 0.00 0.00 0.00 25 1011.2
20260509201919 84 68 3.5 3.5 0.00 0.00 0.00 28 1011.1
20260509201414 83 101 2.6 6.1 0.00 0.00 0.00 27 1011.3
20260509200911 84 243 1.7 2.6 0.00 0.00 0.00 26 1011.2
20260509200411 83 112 0.0 2.6 0.00 0.00 0.00 31 1011.4
20260509195908 83 74 4.3 4.3 0.00 0.00 0.00 32 1011.1
20260509195403 82 339 2.6 4.3 0.00 0.00 0.00 31 1011.3
20260509194903 84 70 3.5 3.5 0.00 0.00 0.00 34 1011.2
20260509194359 83 56 2.6 3.5 0.00 0.00 0.00 32 1011.2
20260509193856 82 71 2.6 5.2 0.00 0.00 0.00 31 1011.2
20260509193356 82 82 4.3 5.2 0.00 0.00 0.00 33 1011.4
20260509192852 82 106 0.0 5.2 0.00 0.00 0.00 34 1011.6
20260509192348 82 60 6.1 6.1 0.00 0.00 0.00 35 1011.2
20260509191844 82 160 0.9 5.2 0.00 0.00 0.00 40 1011.4
20260509191339 84 172 0.0 3.5 0.00 0.00 0.00 42 1011.4
20260509190836 83 21 2.6 4.3 0.00 0.00 0.00 40 1011.4
20260509190333 83 266 1.7 2.6 0.00 0.00 0.00 39 1011.4
20260509185830 82 167 2.6 3.5 0.00 0.00 0.00 43 1011.4
20260509185327 83 114 0.0 2.6 0.00 0.00 0.00 39 1011.5
20260509184824 84 257 0.0 2.6 0.00 0.00 0.00 42 1011.6
20260509184321 82 254 0.0 2.6 0.00 0.00 0.00 39 1011.7
20260509183818 82 204 1.7 5.2 0.00 0.00 0.00 40 1011.7
20260509183313 81 113 1.7 2.6 0.00 0.00 0.00 33 1012.0
20260509182809 82 160 0.9 2.6 0.00 0.00 0.00 33 1011.7
20260509182307 83 253 0.0 2.6 0.00 0.00 0.00 37 1011.7
20260509181803 82 110 2.6 3.5 0.00 0.00 0.00 31 1011.9
20260509181301 81 180 2.6 3.5 0.00 0.00 0.00 44 1011.7
20260509180758 80 0 0.0 2.6 0.00 0.00 0.00 34 1011.8
20260509180254 80 109 3.5 4.3 0.00 0.00 0.00 36 1011.8
20260509175750 80 97 3.5 4.3 0.00 0.00 0.00 37 1011.7
20260509175247 80 120 2.6 5.2 0.00 0.00 0.00 40 1011.9
20260509174743 81 90 1.7 3.5 0.00 0.00 0.00 41 1011.7
20260509174238 81 346 2.6 2.6 0.00 0.00 0.00 41 1012.1
20260509173735 80 0 0.0 4.3 0.00 0.00 0.00 41 1011.9
20260509173230 79 339 1.7 3.5 0.00 0.00 0.00 45 1011.8
20260509172727 79 154 0.0 5.2 0.00 0.00 0.00 49 1011.8
20260509172223 80 6 0.0 1.7 0.00 0.00 0.00 54 1011.9
20260509171718 80 319 1.7 3.5 0.00 0.00 0.00 53 1011.8
20260509171215 80 173 0.9 2.6 0.00 0.00 0.00 53 1011.9
20260509170712 78 243 2.6 5.2 0.00 0.00 0.00 54 1012.0
20260509170208 77 283 0.0 2.6 0.00 0.00 0.00 58 1012.3
20260509165707 78 283 0.9 3.5 0.00 0.00 0.00 58 1012.0
20260509165202 79 270 0.9 4.3 0.00 0.00 0.00 57 1012.1
20260509164658 78 14 2.6 3.5 0.00 0.00 0.00 62 1012.2
20260509164154 78 17 2.6 3.5 0.00 0.00 0.00 61 1012.3
20260509163652 76 254 2.6 4.3 0.00 0.00 0.00 62 1012.0
20260509163148 76 270 0.0 3.5 0.00 0.00 0.00 65 1012.4
20260509162645 78 188 0.0 2.6 0.00 0.00 0.00 63 1012.4
20260509162141 77 203 0.9 1.7 0.00 0.00 0.00 61 1012.4
20260509161637 75 180 1.7 2.6 0.00 0.00 0.00 64 1012.4
20260509161132 74 37 0.0 3.5 0.00 0.00 0.00 67 1012.6
20260509160628 75 25 2.6 4.3 0.00 0.00 0.00 65 1012.3
20260509160124 75 270 1.7 4.3 0.00 0.00 0.00 64 1012.3
20260509155620 75 9 3.5 3.5 0.00 0.00 0.00 63 1012.5
20260509155116 74 246 0.0 1.7 0.00 0.00 0.00 64 1012.6
20260509154612 75 188 1.7 2.6 0.00 0.00 0.00 64 1012.7
20260509154110 75 174 0.0 1.7 0.00 0.00 0.00 65 1012.6
20260509153607 74 200 0.9 2.6 0.00 0.00 0.00 66 1012.6
20260509153104 73 253 2.6 2.6 0.00 0.00 0.00 66 1012.6
20260509152559 72 170 1.7 2.6 0.00 0.00 0.00 68 1012.4
20260509152057 72 209 0.9 4.3 0.00 0.00 0.00 68 1012.5
20260509151553 73 204 1.7 1.7 0.00 0.00 0.00 67 1012.5
20260509151051 70 276 0.9 2.6 0.00 0.00 0.00 71 1012.5
20260509150548 70 90 0.0 2.6 0.00 0.00 0.00 70 1012.4
20260509150047 71 0 0.0 2.6 0.00 0.00 0.00 68 1012.8
20260509145542 71 180 1.7 1.7 0.00 0.00 0.00 71 1012.7
20260509145037 70 192 0.9 2.6 0.00 0.00 0.00 74 1012.8
20260509144534 69 173 0.9 3.5 0.00 0.00 0.00 74 1012.8
20260509144032 68 80 1.7 3.5 0.00 0.00 0.00 74 1012.9
20260509143528 69 80 2.6 3.5 0.00 0.00 0.00 73 1012.7
20260509143026 70 306 0.0 2.6 0.00 0.00 0.00 72 1012.7
20260509142521 69 0 0.0 2.6 0.00 0.00 0.00 74 1012.6
20260509142017 67 320 1.7 2.6 0.00 0.00 0.00 77 1012.7
20260509141514 67 45 1.7 2.6 0.00 0.00 0.00 77 1012.8
20260509141011 67 75 0.0 1.7 0.00 0.00 0.00 80 1012.7
20260509140507 65 294 0.0 2.6 0.00 0.00 0.00 83 1012.7
20260509140006 65 82 0.0 2.6 0.00 0.00 0.00 84 1012.8
20260509135502 64 15 0.0 1.7 0.00 0.00 0.00 87 1012.8
20260509134959 63 186 2.6 3.5 0.00 0.00 0.00 88 1012.6
20260509134457 63 200 0.9 0.9 0.00 0.00 0.00 89 1012.6
20260509133955 63 0 0.0 1.7 0.00 0.00 0.00 89 1012.6
20260509133451 62 99 0.0 0.0 0.00 0.00 0.00 90 1012.7
20260509132949 61 154 0.0 3.5 0.00 0.00 0.00 91 1012.7
20260509132447 61 158 1.7 4.3 0.00 0.00 0.00 90 1012.5
20260509131943 61 159 1.7 1.7 0.00 0.00 0.00 90 1012.5
20260509131441 62 131 1.7 2.6 0.00 0.00 0.00 89 1012.6
20260509130937 0 47 2.6 2.6 0.00 0.00 0.00 91 1012.2
20260509130432 0 90 0.0 2.6 0.00 0.00 0.00 91 1012.4
20260509125930 0 188 0.0 0.0 0.00 0.00 0.00 91 1012.4
20260509125427 0 180 0.0 0.0 0.00 0.00 0.00 91 1012.3
20260509124922 0 180 0.0 0.9 0.00 0.00 0.00 91 1012.3
20260509124420 60 255 0.0 0.9 0.00 0.00 0.00 91 1012.0
20260509123917 0 173 0.0 0.9 0.00 0.00 0.00 93 1011.8
20260509123414 0 0 0.0 0.0 0.00 0.00 0.00 93 1011.8
20260509122910 0 8 0.0 1.7 0.00 0.00 0.00 93 1011.6
20260509122407 0 345 0.0 0.9 0.00 0.00 0.00 93 1011.8
20260509121904 0 352 0.0 0.9 0.00 0.00 0.00 93 1011.6
20260509121401 0 340 0.0 0.9 0.00 0.00 0.00 93 1011.6
20260509120859 0 286 0.0 0.9 0.00 0.00 0.00 93 1011.5
20260509120356 0 336 0.0 0.0 0.00 0.00 0.00 93 1011.3
20260509115854 0 336 0.0 0.0 0.00 0.00 0.00 93 1011.1
20260509115351 0 336 0.0 0.0 0.00 0.00 0.00 93 1011.3
20260509114849 0 336 0.0 1.7 0.00 0.00 0.00 93 1011.1
20260509114348 0 279 0.0 0.0 0.00 0.00 0.00 93 1011.2
20260509113847 57 270 0.0 0.9 0.00 0.00 0.00 93 1010.9
20260509113343 57 346 0.0 1.7 0.00 0.00 0.00 93 1011.3
20260509112840 57 328 1.7 1.7 0.00 0.00 0.00 93 1011.3
20260509112337 57 340 0.0 0.9 0.00 0.00 0.00 93 1010.9
20260509111834 58 0 0.0 0.9 0.00 0.00 0.00 93 1011.2
20260509111331 57 337 0.0 0.9 0.00 0.00 0.00 93 1011.0
20260509110829 57 262 0.0 0.0 0.00 0.00 0.00 93 1010.9
20260509110325 57 262 0.0 0.0 0.00 0.00 0.00 93 1011.1
20260509105823 58 262 0.0 0.9 0.00 0.00 0.00 93 1011.0
20260509105321 57 187 0.0 0.0 0.00 0.00 0.00 93 1010.8
20260509104817 0 180 0.0 0.9 0.00 0.00 0.00 93 1011.0
20260509104314 0 195 0.0 1.7 0.00 0.00 0.00 93 1011.0
20260509103812 0 180 0.0 0.0 0.00 0.00 0.00 93 1010.9
20260509103309 0 180 0.0 0.0 0.00 0.00 0.00 93 1011.1
20260509102808 0 188 0.0 0.0 0.00 0.00 0.00 93 1010.8
20260509102306 0 188 0.0 0.0 0.00 0.00 0.00 93 1011.0
20260509101800 0 355 0.0 0.0 0.00 0.00 0.00 93 1010.9
20260509101256 0 355 0.0 0.0 0.00 0.00 0.00 93 1010.8
20260509100754 58 355 0.0 0.0 0.00 0.00 0.00 93 1010.8
20260509100252 58 345 0.0 0.9 0.00 0.00 0.00 93 1010.7
20260509095748 58 180 0.0 0.0 0.00 0.00 0.00 93 1010.8
20260509095245 58 5 0.0 0.9 0.00 0.00 0.00 93 1010.7
20260509094742 0 7 0.0 0.0 0.00 0.00 0.00 93 1010.8
20260509094239 58 355 1.7 1.7 0.00 0.00 0.00 93 1010.6
20260509093737 58 0 0.0 0.0 0.00 0.00 0.00 93 1010.8
20260509093234 0 0 0.0 1.7 0.00 0.00 0.00 93 1010.6
20260509092732 58 0 0.0 0.0 0.00 0.00 0.00 93 1010.7
20260509092230 0 0 0.0 0.0 0.00 0.00 0.00 93 1010.5
20260509091728 58 0 0.0 0.0 0.00 0.00 0.00 93 1010.7
20260509091223 58 0 0.0 0.0 0.00 0.00 0.00 93 1010.7
20260509090721 58 0 0.0 0.0 0.00 0.00 0.00 93 1010.8
20260509090218 58 0 0.0 0.0 0.00 0.00 0.00 93 1010.7
20260509085716 58 0 0.0 0.0 0.00 0.00 0.00 93 1010.7
20260509085213 58 0 0.0 0.0 0.00 0.00 0.00 93 1010.7
20260509084709 59 0 0.0 1.7 0.00 0.00 0.00 93 1010.7
20260509084206 58 270 0.0 0.0 0.00 0.00 0.00 93 1010.9
20260509083704 58 35 0.0 0.0 0.00 0.00 0.00 93 1011.0
20260509083200 58 35 0.0 0.0 0.00 0.00 0.00 93 1010.8
20260509082658 58 35 0.0 0.0 0.00 0.00 0.00 93 1010.9
20260509082154 59 35 0.0 0.9 0.00 0.00 0.00 93 1011.0
20260509081651 59 331 0.0 0.0 0.00 0.00 0.00 93 1011.1
20260509081148 0 331 0.0 0.9 0.00 0.00 0.00 93 1011.1
20260509080646 59 105 0.0 0.0 0.00 0.00 0.00 93 1011.3
20260509080144 59 105 0.0 0.0 0.00 0.00 0.00 93 1011.1
20260509075642 59 180 0.0 0.0 0.00 0.00 0.00 93 1011.1
20260509075139 59 75 0.9 0.9 0.00 0.00 0.00 93 1011.0
20260509074636 59 340 0.0 0.0 0.00 0.00 0.00 92 1011.2
20260509074132 59 254 0.0 0.0 0.00 0.00 0.00 92 1011.4
20260509073629 59 0 0.0 0.0 0.00 0.00 0.00 92 1011.4
20260509073125 59 8 0.0 0.9 0.00 0.00 0.00 92 1011.6